Voltar ao catálogo

STARLINK-34764

AtivoComunicaçõesVLEO
NORAD 65098·PAYLOAD·🇺🇸 United States

Lançado Aug 4, 2025 de Cape Canaveral Space Force Station

Loading…

Próximas Passagens (próximas 24 horas)

TLE

AtualizadoSource: CelesTrak SupGP

Época: Sep 14, 2026, 22:51 UTC

1 65098C 25167W   26257.95256944  .00011009  00000+0  32517-3 0  2573
2 65098  53.1573 223.3889 0001513 102.3331 324.2434 15.34394260    12

Acompanhe STARLINK-34764 em tempo real com AllMySat

Download on the App Store